Butler, GA

6:55 PM EDT on July 23, 2016 (GMT -0400)
Butler

Weather History for K6A1 - October, 2012

Change the Weather History Date:

Saturday, October 13, 2012

  Actual Average (KMCN) Record (KMCN)
Temperature  
Mean Temperature 71 °F 66 °F  
Max Temperature 82 °F 78 °F 92 °F (1969)
Min Temperature 60 °F 53 °F 37 °F (1917)
Degree Days  
Heating Degree Days 0 2  
Month to date heating degree days 21  
Since 1 July heating degree days 27  
Cooling Degree Days 6 3  
Month to date cooling degree days 58  
Year to date cooling degree days 2108  
Growing Degree Days 21 (Base 50)    
Moisture  
Dew Point 59 °F    
Average Humidity 70    
Maximum Humidity 100    
Minimum Humidity 35    
Precipitation  
Precipitation 0.00 in 0.09 in 1.43 in (2002)
Month to date precipitation 1.26  
Year to date precipitation 36.79  
Sea Level Pressure  
Sea Level Pressure 30.27 in    
Wind  
Wind Speed 3 mph ()    
Max Wind Speed 13 mph    
Max Gust Speed 17 mph    
Visibility 9.8 miles    
Events      
T = Trace of Precipitation, MM = Missing Value Source: Averaged Metar Reports

Daily Weather History Graph

Daily Weather History Graph

Search for Another Location

Airport or City:

Trip Planner

Search our weather history database for the weather conditions in past years. The results will help you decide how hot, cold, wet, or windy it might be!

Date:

Astronomy

Oct. 13, 2012 Rise Set
Actual Time 7:39 AM EDT 7:05 PM EDT
Civil Twilight 7:15 AM EDT 7:30 PM EDT
Nautical Twilight 6:46 AM EDT 7:59 PM EDT
Astronomical Twilight 6:17 AM EDT 8:27 PM EDT
Moon 5:33 AM EDT (10/13) 5:45 PM EDT (10/13)
Length of Visible Light 12h 15m
Length of Day
11h 26m
Waning Crescent, 5% of the Moon is Illuminated
Oct 13
Waning Crescent
Oct 15
New
Oct 21
First Quarter
Oct 29
Full
Nov 6
Last Quarter

Hourly Weather History & Observations

Time (EDT) Temp. Heat Index Dew Point Humidity Pressure Visibility Wind Dir Wind Speed Gust Speed Precip Events Conditions
12:15 AM 68.0 °F - 62.6 °F 83% 30.25 in 10.0 mi Calm Calm - N/A   Unknown
12:35 AM 66.2 °F - 62.6 °F 88% 30.25 in 10.0 mi Calm Calm - N/A   Unknown
12:55 AM 68.0 °F - 62.6 °F 83% 30.24 in 10.0 mi North 3.5 mph - N/A   Unknown
1:15 AM 68.0 °F - 62.6 °F 83% 30.25 in 10.0 mi NNW 3.5 mph - N/A   Unknown
1:35 AM 68.0 °F - 62.6 °F 83% 30.24 in 10.0 mi North 3.5 mph - N/A   Unknown
1:55 AM 66.2 °F - 64.4 °F 94% 30.24 in 10.0 mi Calm Calm - N/A   Unknown
2:15 AM 64.4 °F - 62.6 °F 94% 30.25 in 10.0 mi Calm Calm - N/A   Unknown
2:55 AM 64.4 °F - 64.4 °F 100% 30.24 in 10.0 mi NNE 3.5 mph - N/A   Unknown
3:15 AM 64.4 °F - 64.4 °F 100% 30.24 in 10.0 mi Calm Calm - N/A   Unknown
3:35 AM 64.4 °F - 64.4 °F 100% 30.24 in 10.0 mi North 3.5 mph - N/A   Unknown
3:55 AM 64.4 °F - 62.6 °F 94% 30.24 in 10.0 mi North 3.5 mph - N/A   Unknown
4:35 AM 64.4 °F - 62.6 °F 94% 30.24 in 10.0 mi North 3.5 mph - N/A   Unknown
4:55 AM 62.6 °F - 62.6 °F 100% 30.25 in 10.0 mi NNE 3.5 mph - N/A   Unknown
5:15 AM 62.6 °F - 62.6 °F 100% 30.25 in 10.0 mi NNE 3.5 mph - N/A   Unknown
5:35 AM 62.6 °F - 62.6 °F 100% 30.25 in 10.0 mi NNE 3.5 mph - N/A   Unknown
6:35 AM 62.6 °F - 62.6 °F 100% 30.28 in 10.0 mi NE 3.5 mph - N/A   Unknown
6:55 AM 62.6 °F - 62.6 °F 100% 30.28 in 10.0 mi ENE 3.5 mph - N/A   Unknown
7:15 AM 62.6 °F - 62.6 °F 100% 30.28 in 10.0 mi ENE 4.6 mph - N/A   Unknown
7:35 AM 62.6 °F - 62.6 °F 100% 30.29 in 7.0 mi ENE 3.5 mph - N/A   Unknown
7:55 AM 60.8 °F - 60.8 °F 100% 30.30 in 7.0 mi ENE 3.5 mph - N/A   Unknown
8:15 AM 62.6 °F - 62.6 °F 100% 30.30 in 7.0 mi East 4.6 mph - N/A   Unknown
8:55 AM 64.4 °F - 62.6 °F 94% 30.32 in 7.0 mi East 4.6 mph - N/A   Unknown
9:15 AM 66.2 °F - 64.4 °F 94% 30.33 in 10.0 mi East 4.6 mph - N/A   Unknown
9:55 AM 69.8 °F - 64.4 °F 83% 30.33 in 10.0 mi East 6.9 mph - N/A   Unknown
10:15 AM 71.6 °F - 62.6 °F 73% 30.34 in 10.0 mi ESE 5.8 mph - N/A   Unknown
10:35 AM 73.4 °F - 62.6 °F 69% 30.34 in 10.0 mi ESE 8.1 mph - N/A   Unknown
10:55 AM 73.4 °F - 60.8 °F 65% 30.34 in 10.0 mi ESE 10.4 mph 16.1 mph N/A   Unknown
11:15 AM 77.0 °F - 59.0 °F 54% 30.34 in 10.0 mi East 10.4 mph 17.3 mph N/A   Unknown
11:55 AM 78.8 °F - 55.4 °F 44% 30.34 in 10.0 mi ESE 12.7 mph 16.1 mph N/A   Unknown
12:35 PM 78.8 °F - 55.4 °F 44% 30.32 in 10.0 mi SSE 9.2 mph - N/A   Unknown
12:55 PM 80.6 °F 80.5 °F 55.4 °F 42% 30.31 in 10.0 mi SSE 11.5 mph - N/A   Unknown
1:15 PM 80.6 °F 80.3 °F 53.6 °F 39% 30.31 in 10.0 mi ESE 11.5 mph - N/A   Unknown
1:35 PM 80.6 °F 80.3 °F 53.6 °F 39% 30.30 in 10.0 mi SE 10.4 mph - N/A   Unknown
1:55 PM 80.6 °F 80.3 °F 53.6 °F 39% 30.29 in 10.0 mi ESE 8.1 mph 17.3 mph N/A   Unknown
2:15 PM 80.6 °F 80.3 °F 53.6 °F 39% 30.28 in 10.0 mi ESE 10.4 mph - N/A   Unknown
2:55 PM 82.4 °F - 51.8 °F 35% 30.26 in 10.0 mi East 8.1 mph - N/A   Unknown
3:15 PM 82.4 °F 81.4 °F 53.6 °F 37% 30.25 in 10.0 mi SE 9.2 mph - N/A   Unknown
3:35 PM 82.4 °F 81.4 °F 53.6 °F 37% 30.25 in 10.0 mi ESE 8.1 mph - N/A   Unknown
3:55 PM 82.4 °F 81.4 °F 53.6 °F 37% 30.24 in 10.0 mi ESE 5.8 mph - N/A   Unknown
4:15 PM 82.4 °F 81.4 °F 53.6 °F 37% 30.24 in 10.0 mi SE 4.6 mph - N/A   Unknown
4:35 PM 82.4 °F 81.4 °F 53.6 °F 37% 30.24 in 10.0 mi East 3.5 mph - N/A   Unknown
4:55 PM 82.4 °F 81.4 °F 53.6 °F 37% 30.24 in 10.0 mi East 3.5 mph - N/A   Unknown
5:15 PM 82.4 °F 81.4 °F 53.6 °F 37% 30.23 in 10.0 mi ESE 5.8 mph - N/A   Unknown
5:55 PM 80.6 °F 80.5 °F 55.4 °F 42% 30.24 in 10.0 mi ESE 5.8 mph - N/A   Unknown
6:15 PM 80.6 °F 80.5 °F 55.4 °F 42% 30.23 in 10.0 mi East 4.6 mph - N/A   Unknown
6:35 PM 78.8 °F - 57.2 °F 47% 30.23 in 10.0 mi East 4.6 mph - N/A   Unknown
6:55 PM 77.0 °F - 57.2 °F 50% 30.23 in 10.0 mi East 4.6 mph - N/A   Unknown
7:15 PM 75.2 °F - 57.2 °F 53% 30.23 in 10.0 mi Calm Calm - N/A   Unknown
7:35 PM 73.4 °F - 57.2 °F 57% 30.23 in 10.0 mi Calm Calm - N/A   Unknown
8:55 PM 71.6 °F - 59.0 °F 64% 30.25 in 10.0 mi Calm Calm - N/A   Unknown
9:15 PM 69.8 °F - 59.0 °F 68% 30.25 in 10.0 mi Calm Calm - N/A   Unknown
9:35 PM 69.8 °F - 59.0 °F 68% 30.25 in 10.0 mi East 3.5 mph - N/A   Unknown
10:15 PM 68.0 °F - 59.0 °F 73% 30.26 in 10.0 mi Calm Calm - N/A   Unknown
10:35 PM 68.0 °F - 60.8 °F 78% 30.26 in 10.0 mi Calm Calm - N/A   Unknown
10:55 PM 68.0 °F - 60.8 °F 78% 30.26 in 10.0 mi East 3.5 mph - N/A   Unknown
11:15 PM 68.0 °F - 60.8 °F 78% 30.26 in 10.0 mi Calm Calm - N/A   Unknown
11:35 PM 66.2 °F - 60.8 °F 83% 30.26 in 10.0 mi Calm Calm - N/A   Unknown
11:55 PM 66.2 °F - 60.8 °F 83% 30.26 in 10.0 mi Calm Calm - N/A   Unknown